Regional Weather Roundup
Issued by NWS Newport/Morehead, NC

Current Version | Previous Version | Graphics & Text | Print | Product List | Glossary Off
Versions: 1 2 3 4 5 6 7 8 9 10 11 12 13 14 15 16 17 18 19 20 21 22 23 24 25 26 27 28 29 30 31 32 33 34 35 36 37 38 39 40 41 42 43 44 45 46 47 48 49 50

277
ASUS42 KMHX 301713
RWRMHX
WEATHER ROUNDUP FOR EASTERN NORTH CAROLINA
NATIONAL WEATHER SERVICE NEWPORT/MOREHEAD CITY NC
100 PM EDT SAT APR 30 2016

NOTE: "FAIR" INDICATES FEW OR NO CLOUDS BELOW 12,000 FEET
WITH NO SIGNIFICANT WEATHER AND/OR OBSTRUCTIONS TO VISIBILITY

NCZ015>017-031-032-045>047-102-103-301800-
NORTH COAST

CITY           SKY/WX    TMP DP  RH WIND       PRES   REMARKS
EDENTON        CLOUDY    61  55  78 E6        30.18F
ELIZABETH CITY CLOUDY    61  52  72 NE10      30.17S
KITTY HAWK     CLOUDY    58  52  78 NE6       30.16R
MANTEO         NOT AVBL

$$

NCZ045>047-081-094-103-104-301800-
CENTRAL COAST

CITY           SKY/WX    TMP DP  RH WIND       PRES   REMARKS
FRISCO         CLOUDY    60  53  77 N8        30.15R
SWANQUARTER    NOT AVBL

$$

NCZ095-097-098-100-101-301800-
SOUTHERN COAST

CITY           SKY/WX    TMP DP  RH WIND       PRES   REMARKS
BEAUFORT       CLOUDY    64  57  78 NE9       30.14S
CEDAR ISLAND   NOT AVBL
JACKSONVILLE   CLOUDY    70  57  63 E7        30.12F
PINEY ISLAND   NOT AVBL
WILMINGTON     CLOUDY    67  59  75 NE9       30.12F


$$

NCZ011>013-027>030-043-044-078>080-089-090>093-098-301800-
COASTAL PLAIN

CITY           SKY/WX    TMP DP  RH WIND       PRES   REMARKS
AHOSKIE        CLOUDY    58  53  83 CALM      30.19R
CLINTON        PTSUNNY   71  61  71 E3        30.13S
ELIZABETHTOWN  CLOUDY    70  61  73 E7        30.11F
GOLDSBORO      CLOUDY    68  61  77 NE9       30.12F
GREENVILLE     CLOUDY    61  55  82 CALM      30.18S
HAVELOCK       CLOUDY    64  58  80 E7        30.16S
KENANSVILLE    CLOUDY    71  57  63 E3        30.13F
KINSTON        PTSUNNY   64  55  72 NE8       30.16S
NEW BERN       CLOUDY    62  56  80 NE5       30.17R
RICHLANDS      CLOUDY    69  58  67 E7        30.13F
ROCKY MOUNT    CLOUDY    60  56  86 NE9       30.17R
WASHINGTON     CLOUDY    59  55  86 NE6       30.17S
WHITEVILLE     CLOUDY    71  63  76 E9        30.10S HAZE

$$

AMZ130-135-150-152-154-156-158-170-250-252-270-ANZ085-086-088-633-658-670-301800-
MARINE OBSERVATIONS

STATION/POSITION TIME  TEMP    WIND        PRES    WAVE   SWELL
                       AIR SEA DIR/SP/G            HT/PER HT/PER
                 (UTC) (F)     (DEG/KT/KT) (MB)    (FT/S) (FT/S)
CHESAPEAKE LIGHT 1700   52      30/ 13/ 13 1022.6
64 E VA BEACH    1650   52 53   10/ 14/ 17 1020.9    6/ 9   5/ 9
DUCK             1600   53 67   20/ 14/ 17 1020.9
2 E DUCK         1611      58                N/A     5/10   2/11
OREGON INLET     1600   55 62   10/ 10/ 15 1020.8
13E OREGON INLT  1700      55                N/A     6/11   5/11
HATTERAS CG      1600   58 68   30/  9/ 13 1020.3
DIAMOND BUOY     1650   60 74   10/ 12/ 16 1020.3    5/ 8   5/ 8
CAPE LOOKOUT     1700   62      40/ 13/ 15 1020.4
BEAUFORT LAB     1600   63 67   70/  7/  9 1019.7
30 SE NEW RVR IN 1625      68                N/A     3/11   2/11
27 SE WRIGHTSVLE 1608   66 69   70/ 14/ 19 1018.6
5 SE WRIGHTSVLE  1608   65 68   80/ 14/ 17 1020.4
225 S CAPE HAT   1650   70 72   50/ 12/ 14 1017.9    4/ 9   3/ 9
41 SE CHARLESTON 1650   74 73   90/ 10/ 12 1017.4    2/ 8   2/ 8

$$




USA.gov is the U.S. government's official web portal to all federal, state and local government web resources and services.